KLM922 EGPH-EHAM

Flight info

Callsign KLM922
Flight time 1h 1m
Altitude 37000
Route TLA Y96 OTBUN DCT ERKIT N110 DOLAS L603 LAMSO
Aircraft A320/M-SDE3FGHIRWY/LB1

Departure

Time 2026-05-05 08:23
Airport Edinburgh Airport (EGPH)

Arrival

Time 2026-05-05 09:25
Airport Amsterdam Airport Schiphol (EHAM)
Time Latitude Longitude Altitude Speed Heading
2026-05-05 07:36 55.94860 -3.36611 116 ft 0 kts 145°
2026-05-05 08:12 55.94879 -3.36637 112 ft 4 kts 136°
2026-05-05 08:12 55.94896 -3.36673 112 ft 4 kts 117°
2026-05-05 08:12 55.94903 -3.36716 113 ft 4 kts 75°
2026-05-05 08:13 55.94891 -3.36754 113 ft 4 kts 43°
2026-05-05 08:13 55.94869 -3.36778 115 ft 4 kts
2026-05-05 08:13 55.94842 -3.36779 116 ft 4 kts 356°
2026-05-05 08:13 55.94835 -3.36778 116 ft 1 kts 359°
2026-05-05 08:18 55.94851 -3.36779 116 ft 4 kts 359°
2026-05-05 08:18 55.94885 -3.36793 115 ft 6 kts 335°
2026-05-05 08:19 55.94951 -3.36805 116 ft 12 kts 30°
2026-05-05 08:19 55.95000 -3.36679 114 ft 14 kts 59°
2026-05-05 08:19 55.95061 -3.36498 113 ft 20 kts 58°
2026-05-05 08:19 55.95136 -3.36279 115 ft 22 kts 59°
2026-05-05 08:20 55.95216 -3.36037 115 ft 24 kts 58°
2026-05-05 08:20 55.95304 -3.35779 113 ft 25 kts 58°
2026-05-05 08:20 55.95365 -3.35599 113 ft 12 kts 59°
2026-05-05 08:20 55.95404 -3.35482 116 ft 10 kts 59°
2026-05-05 08:21 55.95453 -3.35410 114 ft 9 kts 10°
2026-05-05 08:21 55.95505 -3.35444 113 ft 8 kts 327°
2026-05-05 08:21 55.95556 -3.35501 113 ft 10 kts 327°
2026-05-05 08:21 55.95572 -3.35562 113 ft 5 kts 245°
2026-05-05 08:22 55.95565 -3.35583 113 ft 0 kts 239°
2026-05-05 08:22 55.95548 -3.35633 112 ft 28 kts 239°
2026-05-05 08:22 55.95302 -3.36360 111 ft 104 kts 239°
2026-05-05 08:23 55.94820 -3.37774 123 ft 159 kts 238°
2026-05-05 08:23 55.94229 -3.39477 740 ft 161 kts 240°
2026-05-05 08:23 55.93639 -3.41164 1539 ft 160 kts 241°
2026-05-05 08:23 55.93045 -3.42882 2151 ft 170 kts 241°
2026-05-05 08:24 55.92388 -3.44795 2512 ft 192 kts 242°
2026-05-05 08:24 55.91647 -3.46956 2903 ft 216 kts 241°
2026-05-05 08:24 55.90815 -3.49378 3325 ft 241 kts 241°
2026-05-05 08:24 55.89907 -3.52057 3911 ft 261 kts 241°
2026-05-05 08:25 55.88984 -3.54875 4834 ft 265 kts 240°
2026-05-05 08:25 55.87917 -3.57573 5821 ft 270 kts 223°
2026-05-05 08:25 55.86247 -3.59013 6702 ft 278 kts 189°
2026-05-05 08:25 55.84328 -3.58584 7573 ft 285 kts 155°
2026-05-05 08:26 55.82801 -3.56349 8427 ft 290 kts 124°
2026-05-05 08:26 55.81683 -3.53330 9287 ft 295 kts 129°
2026-05-05 08:26 55.80084 -3.51022 10074 ft 300 kts 153°
2026-05-05 08:26 55.78103 -3.49532 10456 ft 321 kts 164°
2026-05-05 08:27 55.75875 -3.48450 10716 ft 343 kts 168°
2026-05-05 08:27 55.73494 -3.47488 11231 ft 355 kts 169°
2026-05-05 08:27 55.71066 -3.46491 11955 ft 361 kts 168°
2026-05-05 08:27 55.68617 -3.45388 12726 ft 365 kts 167°
2026-05-05 08:28 55.66156 -3.44168 13492 ft 370 kts 166°
2026-05-05 08:28 55.63675 -3.42849 14193 ft 374 kts 166°
2026-05-05 08:28 55.61177 -3.41474 14847 ft 378 kts 165°
2026-05-05 08:28 55.58665 -3.40075 15518 ft 381 kts 165°
2026-05-05 08:29 55.56131 -3.38631 16192 ft 385 kts 162°
2026-05-05 08:29 55.53724 -3.36477 16861 ft 392 kts 149°
2026-05-05 08:29 55.51618 -3.33357 17520 ft 400 kts 135°
2026-05-05 08:30 55.48851 -3.24767 18750 ft 412 kts 106°
2026-05-05 08:30 55.48270 -3.19802 19313 ft 416 kts 101°
2026-05-05 08:30 55.47745 -3.14767 19899 ft 419 kts 101°
2026-05-05 08:30 55.47208 -3.09699 20474 ft 422 kts 101°
2026-05-05 08:31 55.46661 -3.04603 21030 ft 425 kts 102°
2026-05-05 08:31 55.45860 -2.99576 21573 ft 427 kts 112°
2026-05-05 08:31 55.44603 -2.94835 22096 ft 429 kts 121°
2026-05-05 08:31 55.43121 -2.90247 22608 ft 432 kts 121°
2026-05-05 08:32 55.41637 -2.85626 23113 ft 436 kts 121°
2026-05-05 08:32 55.40146 -2.80955 23610 ft 439 kts 121°
2026-05-05 08:32 55.38647 -2.76251 24006 ft 442 kts 121°
2026-05-05 08:32 55.37138 -2.71519 24404 ft 445 kts 121°
2026-05-05 08:33 55.35620 -2.66767 24790 ft 447 kts 121°
2026-05-05 08:33 55.34088 -2.61984 25171 ft 450 kts 121°
2026-05-05 08:33 55.32546 -2.57197 25559 ft 452 kts 121°
2026-05-05 08:33 55.30988 -2.52381 25933 ft 455 kts 121°
2026-05-05 08:34 55.29374 -2.47599 26307 ft 456 kts 126°
2026-05-05 08:34 55.27449 -2.43280 26665 ft 455 kts 135°
2026-05-05 08:34 55.25156 -2.39473 27004 ft 454 kts 144°
2026-05-05 08:34 55.22637 -2.36127 27356 ft 455 kts 146°
2026-05-05 08:35 55.20100 -2.32785 27697 ft 458 kts 146°
2026-05-05 08:35 55.17557 -2.29421 28025 ft 460 kts 146°
2026-05-05 08:35 55.15002 -2.26029 28354 ft 462 kts 146°
2026-05-05 08:35 55.12431 -2.22616 28665 ft 464 kts 146°
2026-05-05 08:36 55.09852 -2.19198 28963 ft 466 kts 146°
2026-05-05 08:36 55.07257 -2.15767 29246 ft 468 kts 146°
2026-05-05 08:36 55.05535 -2.13498 29437 ft 470 kts 146°
2026-05-05 08:36 55.02920 -2.10064 29699 ft 472 kts 146°
2026-05-05 08:37 55.00286 -2.06621 29955 ft 474 kts 146°
2026-05-05 08:37 54.97642 -2.03173 30219 ft 475 kts 146°
2026-05-05 08:37 54.95004 -1.99732 30521 ft 474 kts 146°
2026-05-05 08:37 54.92372 -1.96299 30825 ft 473 kts 146°
2026-05-05 08:38 54.89740 -1.92866 31131 ft 472 kts 146°
2026-05-05 08:38 54.87117 -1.89448 31441 ft 471 kts 146°
2026-05-05 08:38 54.84495 -1.86037 31742 ft 470 kts 146°
2026-05-05 08:38 54.81876 -1.82640 32070 ft 469 kts 146°
2026-05-05 08:39 54.79263 -1.79262 32386 ft 468 kts 146°
2026-05-05 08:39 54.76654 -1.75893 32707 ft 467 kts 146°
2026-05-05 08:39 54.74047 -1.72533 33031 ft 466 kts 146°
2026-05-05 08:39 54.71452 -1.69190 33356 ft 465 kts 146°
2026-05-05 08:40 54.68855 -1.65852 33687 ft 464 kts 146°
2026-05-05 08:40 54.66266 -1.62530 34022 ft 462 kts 146°
2026-05-05 08:40 54.63689 -1.59226 34308 ft 461 kts 146°
2026-05-05 08:40 54.61111 -1.55926 34587 ft 460 kts 146°
2026-05-05 08:41 54.58539 -1.52642 34857 ft 460 kts 146°
2026-05-05 08:41 54.55968 -1.49367 35106 ft 459 kts 146°
2026-05-05 08:41 54.53399 -1.46101 35348 ft 459 kts 146°
2026-05-05 08:41 54.50824 -1.42835 35581 ft 459 kts 146°
2026-05-05 08:42 54.48260 -1.39584 35805 ft 459 kts 146°
2026-05-05 08:42 54.45690 -1.36330 36023 ft 458 kts 146°
2026-05-05 08:42 54.43122 -1.33082 36245 ft 458 kts 146°
2026-05-05 08:42 54.40555 -1.29841 36456 ft 458 kts 146°
2026-05-05 08:43 54.37986 -1.26603 36670 ft 458 kts 146°
2026-05-05 08:43 54.35418 -1.23371 36858 ft 458 kts 146°
2026-05-05 08:43 54.32848 -1.20143 37007 ft 458 kts 146°
2026-05-05 08:44 54.27707 -1.13698 37030 ft 458 kts 146°
2026-05-05 08:44 54.22562 -1.07277 37031 ft 457 kts 146°
2026-05-05 08:45 54.17422 -1.00870 37031 ft 457 kts 146°
2026-05-05 08:45 54.12283 -0.94487 37026 ft 456 kts 146°
2026-05-05 08:46 54.07182 -0.88164 37040 ft 456 kts 146°
2026-05-05 08:46 54.02041 -0.81831 37044 ft 456 kts 146°
2026-05-05 08:47 53.96845 -0.75648 37041 ft 455 kts 147°
2026-05-05 08:47 53.91614 -0.69590 37038 ft 455 kts 147°
2026-05-05 08:48 53.86385 -0.63541 37037 ft 455 kts 147°
2026-05-05 08:48 53.81172 -0.57476 37035 ft 454 kts 147°
2026-05-05 08:49 53.75963 -0.51414 37035 ft 454 kts 147°
2026-05-05 08:49 53.70752 -0.45388 37039 ft 454 kts 147°
2026-05-05 08:50 53.65551 -0.39386 37043 ft 453 kts 147°
2026-05-05 08:50 53.60351 -0.33404 37042 ft 453 kts 146°
2026-05-05 08:51 53.55785 -0.26121 37043 ft 454 kts 128°
2026-05-05 08:51 53.51996 -0.17617 37043 ft 454 kts 128°
2026-05-05 08:52 53.48191 -0.09157 37037 ft 454 kts 128°
2026-05-05 08:52 53.44384 -0.00715 37033 ft 453 kts 128°
2026-05-05 08:53 53.40573 0.07697 37025 ft 453 kts 128°
2026-05-05 08:53 53.36751 0.16077 37021 ft 452 kts 128°
2026-05-05 08:54 53.32932 0.24446 37021 ft 452 kts 128°
2026-05-05 08:54 53.29112 0.32809 37019 ft 452 kts 128°
2026-05-05 08:55 53.25365 0.40980 37020 ft 452 kts 129°
2026-05-05 08:55 53.21537 0.49291 37017 ft 452 kts 129°
2026-05-05 08:56 53.17699 0.57588 37021 ft 451 kts 129°
2026-05-05 08:56 53.13862 0.65869 37019 ft 451 kts 129°
2026-05-05 08:57 53.10020 0.74143 37018 ft 452 kts 129°
2026-05-05 08:57 53.06196 0.82342 37017 ft 452 kts 129°
2026-05-05 08:58 53.02337 0.90579 37015 ft 452 kts 129°
2026-05-05 08:58 52.98768 0.99151 37019 ft 454 kts 117°
2026-05-05 08:59 52.96823 1.09103 37014 ft 456 kts 102°
2026-05-05 08:59 52.95647 1.19447 37002 ft 457 kts 102°
2026-05-05 09:00 52.94437 1.29805 37002 ft 457 kts 102°
2026-05-05 09:00 52.93214 1.40152 36997 ft 458 kts 102°
2026-05-05 09:01 52.91996 1.50438 37001 ft 458 kts 102°
2026-05-05 09:01 52.90765 1.60807 37007 ft 459 kts 102°
2026-05-05 09:02 52.89523 1.71183 37010 ft 459 kts 102°
2026-05-05 09:02 52.88898 1.76373 36790 ft 460 kts 102°
2026-05-05 09:02 52.88270 1.81554 36542 ft 459 kts 103°
2026-05-05 09:02 52.87636 1.86731 36279 ft 459 kts 103°
2026-05-05 09:03 52.87000 1.91905 36020 ft 458 kts 103°
2026-05-05 09:03 52.86365 1.97066 35765 ft 458 kts 103°
2026-05-05 09:03 52.85730 2.02216 35513 ft 457 kts 103°
2026-05-05 09:03 52.85097 2.07318 34672 ft 461 kts 103°
2026-05-05 09:04 52.84450 2.12514 33803 ft 461 kts 103°
2026-05-05 09:04 52.83799 2.17717 32711 ft 464 kts 103°
2026-05-05 09:04 52.83139 2.22950 31666 ft 466 kts 103°
2026-05-05 09:04 52.82480 2.28208 30657 ft 467 kts 103°
2026-05-05 09:05 52.81817 2.33499 29360 ft 473 kts 103°
2026-05-05 09:05 52.81150 2.38801 28702 ft 465 kts 103°
2026-05-05 09:05 52.80490 2.43988 27988 ft 459 kts 103°
2026-05-05 09:05 52.79838 2.49114 27290 ft 453 kts 103°
2026-05-05 09:06 52.79192 2.54186 26605 ft 449 kts 103°
2026-05-05 09:06 52.78547 2.59207 25934 ft 445 kts 103°
2026-05-05 09:06 52.77904 2.64176 25259 ft 441 kts 104°
2026-05-05 09:06 52.77261 2.69117 24600 ft 438 kts 104°
2026-05-05 09:07 52.76619 2.74020 23941 ft 435 kts 104°
2026-05-05 09:07 52.75982 2.78892 23253 ft 433 kts 104°
2026-05-05 09:07 52.75350 2.83729 22601 ft 429 kts 104°
2026-05-05 09:07 52.74722 2.88507 22025 ft 424 kts 104°
2026-05-05 09:08 52.74098 2.93246 21458 ft 420 kts 104°
2026-05-05 09:08 52.73396 2.97882 20921 ft 414 kts 110°
2026-05-05 09:08 52.72295 3.02239 20400 ft 408 kts 120°
2026-05-05 09:08 52.70896 3.06271 19893 ft 404 kts 122°
2026-05-05 09:09 52.69508 3.10207 19411 ft 400 kts 122°
2026-05-05 09:09 52.68124 3.14158 18928 ft 397 kts 121°
2026-05-05 09:09 52.66752 3.18082 18433 ft 394 kts 122°
2026-05-05 09:09 52.65389 3.21976 17889 ft 391 kts 121°
2026-05-05 09:10 52.64033 3.25829 17381 ft 387 kts 122°
2026-05-05 09:10 52.62684 3.29642 16873 ft 383 kts 122°
2026-05-05 09:10 52.61344 3.33411 16355 ft 381 kts 122°
2026-05-05 09:10 52.60007 3.37159 15845 ft 378 kts 122°
2026-05-05 09:11 52.58835 3.41028 15314 ft 378 kts 112°
2026-05-05 09:11 52.58098 3.45168 14776 ft 377 kts 101°
2026-05-05 09:11 52.57662 3.49409 14239 ft 376 kts 99°
2026-05-05 09:11 52.57224 3.53650 13685 ft 376 kts 100°
2026-05-05 09:12 52.56778 3.57875 13099 ft 374 kts 100°
2026-05-05 09:12 52.56335 3.62008 12557 ft 371 kts 100°
2026-05-05 09:12 52.55885 3.66172 11995 ft 369 kts 100°
2026-05-05 09:12 52.55438 3.70301 11423 ft 366 kts 100°
2026-05-05 09:13 52.54995 3.74401 10851 ft 363 kts 100°
2026-05-05 09:13 52.54555 3.78441 10593 ft 352 kts 100°
2026-05-05 09:13 52.54129 3.82304 10463 ft 337 kts 100°
2026-05-05 09:13 52.53721 3.86010 10340 ft 323 kts 100°
2026-05-05 09:14 52.53331 3.89575 10217 ft 311 kts 100°
2026-05-05 09:14 52.52950 3.93010 10022 ft 302 kts 102°
2026-05-05 09:14 52.52279 3.96230 9902 ft 297 kts 116°
2026-05-05 09:14 52.51177 3.99089 9645 ft 296 kts 130°
2026-05-05 09:15 52.49774 4.01543 9303 ft 293 kts 134°
2026-05-05 09:15 52.48373 4.03943 8968 ft 291 kts 134°
2026-05-05 09:15 52.46981 4.06345 8633 ft 289 kts 134°
2026-05-05 09:15 52.45603 4.08722 8301 ft 287 kts 134°
2026-05-05 09:16 52.44231 4.11087 7974 ft 285 kts 134°
2026-05-05 09:16 52.42870 4.13433 7644 ft 283 kts 134°
2026-05-05 09:16 52.41516 4.15755 7329 ft 281 kts 133°
2026-05-05 09:16 52.40172 4.18065 7009 ft 279 kts 134°
2026-05-05 09:17 52.38833 4.20355 6684 ft 277 kts 134°
2026-05-05 09:17 52.37508 4.22626 6368 ft 275 kts 134°
2026-05-05 09:17 52.36205 4.24850 6052 ft 274 kts 133°
2026-05-05 09:17 52.34893 4.27094 5724 ft 273 kts 133°
2026-05-05 09:18 52.33578 4.29342 5406 ft 273 kts 133°
2026-05-05 09:18 52.32265 4.31585 5089 ft 273 kts 133°
2026-05-05 09:18 52.30954 4.33821 4777 ft 273 kts 132°
2026-05-05 09:18 52.29645 4.36053 4453 ft 272 kts 132°
2026-05-05 09:19 52.28337 4.38280 4143 ft 271 kts 131°
2026-05-05 09:19 52.27037 4.40492 3835 ft 269 kts 131°
2026-05-05 09:19 52.25615 4.42474 3560 ft 270 kts 144°
2026-05-05 09:19 52.24027 4.44107 3264 ft 268 kts 145°
2026-05-05 09:20 52.22568 4.45886 3073 ft 254 kts 131°
2026-05-05 09:20 52.21595 4.48134 2988 ft 235 kts 110°
2026-05-05 09:20 52.21172 4.50601 2874 ft 220 kts 92°
2026-05-05 09:20 52.21246 4.53013 2719 ft 209 kts 76°
2026-05-05 09:21 52.21756 4.55185 2569 ft 200 kts 59°
2026-05-05 09:21 52.22477 4.57066 2396 ft 191 kts 57°
2026-05-05 09:21 52.23157 4.58816 2190 ft 175 kts 57°
2026-05-05 09:21 52.23787 4.60442 1934 ft 164 kts 56°
2026-05-05 09:22 52.24375 4.61965 1721 ft 153 kts 56°
2026-05-05 09:22 52.24913 4.63358 1533 ft 138 kts 56°
2026-05-05 09:22 52.25408 4.64638 1341 ft 129 kts 55°
2026-05-05 09:22 52.25883 4.65869 1163 ft 128 kts 56°
2026-05-05 09:23 52.26358 4.67100 981 ft 127 kts 56°
2026-05-05 09:23 52.26829 4.68320 797 ft 129 kts 56°
2026-05-05 09:23 52.27304 4.69552 629 ft 128 kts 55°
2026-05-05 09:23 52.27774 4.70780 425 ft 128 kts 54°
2026-05-05 09:24 52.28250 4.71991 276 ft 126 kts 55°
2026-05-05 09:24 52.28719 4.73226 99 ft 127 kts 56°
2026-05-05 09:24 52.29179 4.74425 3 ft 116 kts 57°
2026-05-05 09:24 52.29522 4.75311 -2 ft 67 kts 58°
2026-05-05 09:25 52.29695 4.75714 -2 ft 30 kts 42°
2026-05-05 09:25 52.29865 4.75872 -1 ft 27 kts 27°
2026-05-05 09:25 52.30009 4.76032 -1 ft 24 kts 55°
2026-05-05 09:25 52.30093 4.76250 -1 ft 22 kts 58°
2026-05-05 09:26 52.30174 4.76460 -1 ft 21 kts 58°
2026-05-05 09:26 52.30253 4.76661 -1 ft 21 kts 58°
2026-05-05 09:26 52.30327 4.76856 -1 ft 20 kts 58°
2026-05-05 09:26 52.30401 4.77048 -1 ft 20 kts 57°
2026-05-05 09:27 52.30471 4.77239 -1 ft 19 kts 59°
2026-05-05 09:27 52.30540 4.77418 -1 ft 19 kts 56°
2026-05-05 09:27 52.30634 4.77577 -1 ft 20 kts 24°
2026-05-05 09:27 52.30777 4.77601 -1 ft 22 kts
2026-05-05 09:28 52.30930 4.77613 -1 ft 19 kts
2026-05-05 09:28 52.31025 4.77555 -1 ft 16 kts 302°
2026-05-05 09:28 52.31067 4.77381 -1 ft 16 kts 279°
2026-05-05 09:28 52.31076 4.77203 -1 ft 15 kts 274°
2026-05-05 09:29 52.31082 4.77040 -1 ft 14 kts 274°
2026-05-05 09:29 52.31077 4.76890 -1 ft 13 kts 248°
2026-05-05 09:29 52.31017 4.76794 -1 ft 12 kts 220°
2026-05-05 09:29 52.30965 4.76720 -1 ft 9 kts 201°
2026-05-05 09:30 52.30934 4.76714 -1 ft 4 kts 183°
2026-05-05 09:30 52.30914 4.76712 -1 ft 2 kts 182°
2026-05-05 09:30 52.30910 4.76712 -1 ft 0 kts 183°